Houston Clover, TX

11:59 AM CST on November 21, 2017 (GMT -0600)
Clover

Weather History for KLVJ - February, 2014

Change the Weather History Date:

Friday, February 14, 2014

  Actual Average (KEFD) Record (KEFD)
Temperature  
Mean Temperature 58 °F -  
Max Temperature 75 °F 65 °F 80 °F (2000)
Min Temperature 41 °F 47 °F 37 °F (2004)
Degree Days  
Heating Degree Days 7    
Growing Degree Days 8 (Base 50)    
Moisture  
Dew Point 44 °F    
Average Humidity 70    
Maximum Humidity 93    
Minimum Humidity 38    
Precipitation  
Precipitation 0.00 in - - ()
Sea Level Pressure  
Sea Level Pressure 29.94 in    
Wind  
Wind Speed 3 mph (WSW)    
Max Wind Speed 17 mph    
Max Gust Speed 28 mph    
Visibility 6 miles    
Events Fog    
Averages and records for this station are not official NWS values.
T = Trace of Precipitation, MM = Missing Value Source: NWS Daily Summary

Daily Weather History Graph

Daily Weather History Graph

Search for Another Location

Airport or City:

Trip Planner

Search our weather history database for the weather conditions in past years. The results will help you decide how hot, cold, wet, or windy it might be!

Date:

Astronomy

Feb. 14, 2014 Rise Set
Actual Time 7:01 AM CST 6:09 PM CST
Civil Twilight 6:36 AM CST 6:33 PM CST
Nautical Twilight 6:08 AM CST 7:01 PM CST
Astronomical Twilight 5:40 AM CST 7:29 PM CST
Moon 6:10 PM CST (2/14) 6:31 AM CST (2/14)
Length of Visible Light 11h 57m
Length of Day
11h 08m
Full, 100% of the Moon is Illuminated
Feb 14
Full
Feb 14
Full
Feb 22
Last Quarter
Mar 1
New
Mar 8
First Quarter

Hourly Weather History & Observations

Time (CST) Temp. Windchill Dew Point Humidity Pressure Visibility Wind Dir Wind Speed Gust Speed Precip Events Conditions
12:53 AM 43.0 °F - 37.9 °F 82% 29.99 in 6.0 mi Calm Calm - N/A   Haze
1:53 AM 42.1 °F - 37.9 °F 85% 29.96 in 6.0 mi Calm Calm - N/A   Clear
2:53 AM 42.1 °F - 37.0 °F 82% 29.96 in 8.0 mi Calm Calm - N/A   Clear
3:53 AM 42.1 °F - 37.9 °F 85% 29.94 in 7.0 mi Calm Calm - N/A   Clear
4:08 AM 42.1 °F - 37.9 °F 85% 29.93 in 2.5 mi Calm Calm - N/A   Clear
4:15 AM 43.0 °F - 37.9 °F 82% 29.93 in 5.0 mi Calm Calm - N/A   Haze
4:53 AM 43.0 °F - 37.9 °F 82% 29.93 in 5.0 mi Calm Calm - N/A   Haze
5:03 AM 42.1 °F - 37.0 °F 82% 29.93 in 5.0 mi Calm Calm - N/A   Haze
5:08 AM 41.0 °F - 37.0 °F 86% 29.94 in 1.2 mi Calm Calm - N/A   Mostly Cloudy
5:16 AM 42.1 °F - 37.9 °F 85% 29.94 in 0.5 mi Calm Calm - N/A Fog Fog
5:53 AM 41.0 °F - 37.9 °F 89% 29.95 in 0.2 mi Calm Calm - N/A Fog Fog
6:12 AM 43.0 °F - 39.0 °F 86% 29.95 in 2.5 mi Calm Calm - N/A   Overcast
6:19 AM 42.1 °F - 39.0 °F 89% 29.95 in 4.0 mi Calm Calm - N/A   Overcast
6:53 AM 41.0 °F - 37.9 °F 89% 29.95 in 5.0 mi Calm Calm - N/A   Overcast
6:58 AM 41.0 °F 39.0 °F 37.9 °F 89% 29.94 in 1.8 mi SSE 3.5 mph - N/A   Overcast
7:08 AM 42.1 °F 40.2 °F 37.9 °F 85% 29.94 in 0.2 mi South 3.5 mph - N/A Fog Fog
7:53 AM 46.0 °F 43.9 °F 43.0 °F 89% 29.93 in 0.2 mi South 4.6 mph - N/A Fog Fog
8:08 AM 50.0 °F - 46.9 °F 89% 29.93 in 2.0 mi South 5.8 mph - N/A   Scattered Clouds
8:18 AM 52.0 °F - 50.0 °F 93% 29.94 in 4.0 mi SSW 4.6 mph - N/A   Partly Cloudy
8:53 AM 57.0 °F - 53.1 °F 87% 29.93 in 8.0 mi South 8.1 mph - N/A   Clear
9:53 AM 64.0 °F - 55.0 °F 73% 29.94 in 10.0 mi SW 12.7 mph 17.3 mph N/A   Clear
10:53 AM 69.1 °F - 55.9 °F 63% 29.92 in 10.0 mi SW 16.1 mph 23.0 mph N/A   Scattered Clouds
11:53 AM 72.0 °F - 55.9 °F 57% 29.90 in 10.0 mi SW 15.0 mph 25.3 mph N/A   Scattered Clouds
12:53 PM 75.0 °F - 55.0 °F 50% 29.87 in 10.0 mi SW 15.0 mph 26.5 mph N/A   Clear
1:53 PM 75.0 °F - 55.0 °F 50% 29.85 in 10.0 mi SW 15.0 mph 27.6 mph N/A   Clear
2:53 PM 75.9 °F - 54.0 °F 46% 29.85 in 10.0 mi SW 17.3 mph 25.3 mph N/A   Clear
3:53 PM 75.9 °F - 54.0 °F 46% 29.86 in 10.0 mi SW 13.8 mph 20.7 mph N/A   Clear
4:53 PM 75.0 °F - 55.0 °F 50% 29.87 in 10.0 mi SW 9.2 mph - N/A   Clear
5:53 PM 75.9 °F - 48.9 °F 38% 29.90 in 10.0 mi NW 6.9 mph - N/A   Clear
6:53 PM 72.0 °F - 46.9 °F 41% 29.94 in 10.0 mi NNW 8.1 mph - N/A   Clear
7:53 PM 69.1 °F - 43.0 °F 39% 29.98 in 10.0 mi North 10.4 mph - N/A   Clear
8:53 PM 64.0 °F - 39.9 °F 41% 30.00 in 10.0 mi North 4.6 mph - N/A   Clear
9:53 PM 63.0 °F - 37.9 °F 40% 30.05 in 10.0 mi NNW 8.1 mph - N/A   Clear
10:53 PM 60.1 °F - 35.1 °F 39% 30.06 in 10.0 mi NNW 4.6 mph - N/A   Clear
11:53 PM 57.9 °F - 34.0 °F 41% 30.07 in 10.0 mi North 6.9 mph - N/A   Clear